[ hide orbit diagram ]
For accurate long-term ephemerides, please instead use our Horizons system.This orbit viewer was implemented using two-body methods, and hence should not be used for determining accurate long-term trajectories (over several years or decades) or planetary encounter circumstances.
Orbital Elements at Epoch 2459000.5 (2020-May-31.0) TDB
Reference: JPL 13 (heliocentric ecliptic J2000)
Element | Value | Uncertainty (1-sigma) | Units |
e | .1227318930296098 | 7.9525e-08 | |
a | 2.995215046804266 | 5.1182e-08 | au |
q | 2.627606634079207 | 2.3601e-07 | au |
i | 10.01184359456802 | 1.0161e-05 | deg |
node | 58.01617992815135 | 4.1133e-05 | deg |
peri | 279.8221268473698 | 5.8915e-05 | deg |
M | 155.2047309832345 | 4.4849e-05 | deg |
tp | 2458184.212972578380 (2018-Mar-06.71297258) | 0.0002318 | TDB |
period | 1893.391573891692 5.18 | 4.8531e-05 1.329e-07 | d yr |
n | .190134996354744 | 4.8735e-09 | deg/d |
Q | 3.362823459529324 | 5.7463e-08 | au |
|
| | Orbit Determination Parameters
Additional Information
|
[ show covariance matrix ]
Physical Parameter Table
Parameter |
Symbol |
Value |
Units |
Sigma |
Reference |
Notes |
absolute magnitude |
H |
16.5 |
|
n/a |
MPO455728 |
|
|
379051 (2008 WD43) Discovered 2006-Apr-08 by Spacewatch at Kitt Peak |
Reference: | Last Updated: 2013-11-20 |
|
|